Regional Weather Roundup
Issued by NWS

Home | Current Version | Previous Version | Text Only | Print | Product List | Glossary Off
Versions: 1 2 3 4 5 6 7 8 9 10 11 12 13 14 15 16 17 18 19 20 21 22 23 24 25 26 27 28 29 30 31 32 33 34 35 36 37 38 39 40 41 42 43 44 45 46 47 48 49 50

000
ASUS43 KLSX 050807
RWRMO

WEATHER SUMMARY FOR MISSOURI
NATIONAL WEATHER SERVICE SPRINGFIELD MO
200 AM CST THU MAR 05 2015

NOTE: "FAIR" INDICATES FEW OR NO CLOUDS BELOW 12,000 FEET WITH NO
       SIGNIFICANT WEATHER AND/OR OBSTRUCTIONS TO VISIBILITY.
       CURRENT SKY AND/OR WEATHER CONDITIONS ARE NOT AVAILABLE FOR
       CHILLICOTHE AND FARMINGTON.

MOZ001>031-035>038-043-044-053-054-050900-
...NORTHERN AND WESTERN MISSOURI...

CITY           SKY/WX    TMP DP  RH WIND       PRES   REMARKS
KANSAS CTY INT CLEAR     14   3  61 N12       30.45R WCI   0
KANSAS C DTWN  CLEAR     19   3  49 N9        30.47R WCI   8
LEE`S SUMMIT   PTCLDY    17   4  56 N8        30.44R WCI   7
ST JOSEPH      CLEAR     10   2  69 N6        30.50R WCI   0
CHILLICOTHE      N/A     16   5  62 N5        30.47R WCI   9

$$
MOZ066>068-077>081-088>096-101>105-050900-
...SOUTHWEST MISSOURI...

CITY           SKY/WX    TMP DP  RH WIND       PRES   REMARKS
SPRINGFIELD    CLOUDY    21  11  65 NW8       30.36R WCI  11
JOPLIN         MOCLDY    21  12  68 N5        30.41R WCI  15

$$
MOZ032>034-039>042-045>050-055>058-069>072-050900-
...CENTRAL MISSOURI...

CITY           SKY/WX    TMP DP  RH WIND       PRES   REMARKS
COLUMBIA       MOCLDY    20   9  62 N8        30.38R WCI  10
JEFFERSON CITY MOCLDY    20  11  68 NW3       30.41R
ROLLA          CLEAR     20   7  57 NW5       30.34R WCI  13
SEDALIA        MOCLDY    22  10  60 N10       30.42R WCI  11
WHITEMAN AFB   MOCLDY    20   9  62 N12       30.42R WCI   8
WARRENSBURG    MOCLDY    21  10  63 NW7       30.45R WCI  13
OSAGE BEACH    MOCLDY    21   3  45 CALM      30.39S

$$
MOZ051-052-059>065-050900-
...EAST CENTRAL MISSOURI...

CITY           SKY/WX    TMP DP  RH WIND       PRES   REMARKS
ST LOUIS INTL  PTCLDY    20   5  52 N6        30.41R WCI  12
SPIRIT OF STL  PTCLDY    20   4  50 N3        30.40R
ST CHARLES     CLEAR     18   4  54 N6        30.42R WCI  10

$$
MOZ072>076-082>087-097>100-106>115-050900-
...SOUTH CENTRAL AND SOUTHEAST MISSOURI...

CITY           SKY/WX    TMP DP  RH WIND       PRES   REMARKS
CAPE GIRARDEAU CLOUDY    21  10  62 N14       30.33F WCI   8
FARMINGTON     PTCLDY    19   7  58 N8        30.36S WCI   9
POPLAR BLUFF   CLOUDY    22   7  52 N15       30.38R WCI   9
WEST PLAINS    CLOUDY    20   7  57 N8        30.33R WCI  10

$$


USA.gov is the U.S. government's official web portal to all federal, state and local government web resources and services.